Time,TemperatureF,DewpointF,PressureIn,WindDirection,WindDirectionDegrees,WindSpeedMPH,WindSpeedGustMPH,Humidity,HourlyPrecipIn,Conditions,Clouds,dailyrainin,SoftwareType,DateUTC
2013-01-05 00:00:00,34.7,25.9,29.88,WNW,296,3.0,5.0,70,0.00,,,0.14,LWC V2.10 B1702,2013-01-05 05:00:00,
2013-01-05 00:05:00,34.6,25.8,29.88,WNW,282,1.0,8.0,70,0.00,,,0.00,LWC V2.10 B1702,2013-01-05 05:05:00,
2013-01-05 00:10:00,34.6,25.8,29.88,NW,318,2.0,9.0,70,0.00,,,0.00,LWC V2.10 B1702,2013-01-05 05:10:00,
2013-01-05 00:15:00,34.5,26.1,29.88,West,273,1.0,4.0,71,0.00,,,0.00,LWC V2.10 B1702,2013-01-05 05:15:00,
2013-01-05 00:20:00,34.4,26.0,29.88,West,275,3.0,7.0,71,0.00,,,0.00,LWC V2.10 B1702,2013-01-05 05:20:00,
2013-01-05 00:25:00,34.4,26.0,29.88,WNW,286,7.0,7.0,71,0.00,,,0.00,LWC V2.10 B1702,2013-01-05 05:25:00,
2013-01-05 00:30:00,34.4,26.0,29.88,West,264,1.0,6.0,71,0.00,,,0.00,LWC V2.10 B1702,2013-01-05 05:30:00,
2013-01-05 00:35:00,34.4,26.0,29.88,West,274,2.0,3.0,71,0.00,,,0.00,LWC V2.10 B1702,2013-01-05 05:35:00,
2013-01-05 00:40:00,34.3,25.9,29.88,West,271,6.0,7.0,71,0.00,,,0.00,LWC V2.10 B1702,2013-01-05 05:40:00,
2013-01-05 00:45:00,34.4,25.6,29.88,WNW,287,6.0,7.0,70,0.00,,,0.00,LWC V2.10 B1702,2013-01-05 05:45:00,
2013-01-05 00:50:00,34.6,25.8,29.88,West,271,4.0,7.0,70,0.00,,,0.00,LWC V2.10 B1702,2013-01-05 05:50:00,
2013-01-05 00:55:00,34.5,25.7,29.88,West,275,0.0,4.0,70,0.00,,,0.00,LWC V2.10 B1702,2013-01-05 05:55:00,
2013-01-05 01:00:00,34.5,25.7,29.88,WSW,246,2.0,5.0,70,0.00,,,0.00,LWC V2.10 B1702,2013-01-05 06:00:00,
2013-01-05 01:05:00,34.6,25.8,29.88,WSW,257,2.0,10.0,70,0.00,,,0.00,LWC V2.10 B1702,2013-01-05 06:05:00,
2013-01-05 01:10:00,34.5,25.7,29.89,West,275,5.0,9.0,70,0.00,,,0.00,LWC V2.10 B1702,2013-01-05 06:10:00,
2013-01-05 01:15:00,34.5,25.4,29.89,West,280,5.0,8.0,69,0.00,,,0.00,LWC V2.10 B1702,2013-01-05 06:15:00,
2013-01-05 01:20:00,34.3,25.5,29.89,WNW,292,2.0,6.0,70,0.00,,,0.00,LWC V2.10 B1702,2013-01-05 06:20:00,
2013-01-05 01:25:00,34.3,25.5,29.90,WNW,287,5.0,10.0,70,0.00,,,0.00,LWC V2.10 B1702,2013-01-05 06:25:00,
2013-01-05 01:30:00,34.3,25.2,29.90,WNW,295,3.0,8.0,69,0.00,,,0.00,LWC V2.10 B1702,2013-01-05 06:30:00,
2013-01-05 01:35:00,34.2,25.5,29.90,WNW,302,4.0,6.0,70,0.00,,,0.00,LWC V2.10 B1702,2013-01-05 06:35:00,
2013-01-05 01:40:00,34.2,25.1,29.90,WNW,292,2.0,5.0,69,0.00,,,0.00,LWC V2.10 B1702,2013-01-05 06:40:00,
2013-01-05 01:45:00,34.1,25.0,29.91,West,270,1.0,8.0,69,0.00,,,0.00,LWC V2.10 B1702,2013-01-05 06:45:00,
2013-01-05 01:50:00,34.1,25.0,29.91,West,273,2.0,10.0,69,0.00,,,0.00,LWC V2.10 B1702,2013-01-05 06:50:00,
2013-01-05 01:55:00,34.0,25.3,29.91,WNW,301,4.0,9.0,70,0.00,,,0.00,LWC V2.10 B1702,2013-01-05 06:55:00,
2013-01-05 02:00:00,34.0,25.3,29.91,West,263,4.0,7.0,70,0.00,,,0.00,LWC V2.10 B1702,2013-01-05 07:00:00,
2013-01-05 02:05:00,33.9,25.2,29.91,West,266,3.0,6.0,70,0.00,,,0.00,LWC V2.10 B1702,2013-01-05 07:05:00,
2013-01-05 02:10:00,33.9,24.8,29.92,WNW,296,6.0,7.0,69,0.00,,,0.00,LWC V2.10 B1702,2013-01-05 07:10:00,
2013-01-05 02:15:00,33.8,25.1,29.92,WSW,240,2.0,5.0,70,0.00,,,0.00,LWC V2.10 B1702,2013-01-05 07:15:00,
2013-01-05 02:20:00,33.7,25.0,29.92,NW,311,3.0,4.0,70,0.00,,,0.00,LWC V2.10 B1702,2013-01-05 07:20:00,
2013-01-05 02:25:00,33.7,25.0,29.92,WNW,284,2.0,9.0,70,0.00,,,0.00,LWC V2.10 B1702,2013-01-05 07:25:00,
2013-01-05 02:30:00,33.7,25.0,29.93,WNW,285,5.0,8.0,70,0.00,,,0.00,LWC V2.10 B1702,2013-01-05 07:30:00,
2013-01-05 02:35:00,33.7,25.3,29.93,WNW,282,4.0,5.0,71,0.00,,,0.00,LWC V2.10 B1702,2013-01-05 07:35:00,
2013-01-05 02:40:00,33.6,25.2,29.93,WNW,284,3.0,7.0,71,0.00,,,0.00,LWC V2.10 B1702,2013-01-05 07:40:00,
2013-01-05 02:45:00,33.4,25.0,29.93,WNW,293,4.0,7.0,71,0.00,,,0.00,LWC V2.10 B1702,2013-01-05 07:45:00,
2013-01-05 02:50:00,33.4,25.0,29.94,NNW,328,1.0,4.0,71,0.00,,,0.00,LWC V2.10 B1702,2013-01-05 07:50:00,
2013-01-05 02:55:00,33.3,25.3,29.94,NW,306,3.0,6.0,72,0.00,,,0.00,LWC V2.10 B1702,2013-01-05 07:55:00,
2013-01-05 03:00:00,33.3,24.9,29.94,WSW,252,5.0,8.0,71,0.00,,,0.00,LWC V2.10 B1702,2013-01-05 08:00:00,
2013-01-05 03:05:00,33.2,24.8,29.94,SW,226,4.0,8.0,71,0.00,,,0.00,LWC V2.10 B1702,2013-01-05 08:05:00,
2013-01-05 03:10:00,33.3,24.9,29.94,WNW,283,6.0,6.0,71,0.00,,,0.00,LWC V2.10 B1702,2013-01-05 08:10:00,
2013-01-05 03:15:00,33.2,24.8,29.94,West,281,2.0,8.0,71,0.00,,,0.00,LWC V2.10 B1702,2013-01-05 08:15:00,
2013-01-05 03:20:00,33.2,24.5,29.94,WNW,300,2.0,7.0,70,0.00,,,0.00,LWC V2.10 B1702,2013-01-05 08:20:00,
2013-01-05 03:25:00,33.2,24.8,29.94,WSW,240,3.0,9.0,71,0.00,,,0.00,LWC V2.10 B1702,2013-01-05 08:25:00,
2013-01-05 03:30:00,33.2,24.8,29.94,WNW,303,8.0,10.0,71,0.00,,,0.00,LWC V2.10 B1702,2013-01-05 08:30:00,
2013-01-05 03:35:00,33.2,24.8,29.94,NW,308,6.0,8.0,71,0.00,,,0.00,LWC V2.10 B1702,2013-01-05 08:35:00,
2013-01-05 03:40:00,33.2,24.5,29.95,WNW,288,3.0,7.0,70,0.00,,,0.00,LWC V2.10 B1702,2013-01-05 08:40:00,
2013-01-05 03:45:00,33.2,24.5,29.95,NW,325,4.0,8.0,70,0.00,,,0.00,LWC V2.10 B1702,2013-01-05 08:45:00,
2013-01-05 03:50:00,33.2,24.5,29.95,West,273,3.0,10.0,70,0.00,,,0.00,LWC V2.10 B1702,2013-01-05 08:50:00,
2013-01-05 03:55:00,33.1,24.4,29.95,WSW,256,5.0,7.0,70,0.00,,,0.00,LWC V2.10 B1702,2013-01-05 08:55:00,
2013-01-05 04:00:00,33.1,24.7,29.95,NW,314,1.0,5.0,71,0.00,,,0.00,LWC V2.10 B1702,2013-01-05 09:00:00,
2013-01-05 04:05:00,33.0,24.6,29.95,West,279,4.0,5.0,71,0.00,,,0.00,LWC V2.10 B1702,2013-01-05 09:05:00,
2013-01-05 04:10:00,33.0,25.0,29.95,West,263,0.0,6.0,72,0.00,,,0.00,LWC V2.10 B1702,2013-01-05 09:10:00,
2013-01-05 04:15:00,33.0,25.0,29.95,WNW,292,2.0,7.0,72,0.00,,,0.00,LWC V2.10 B1702,2013-01-05 09:15:00,
2013-01-05 04:20:00,33.0,24.6,29.96,WNW,288,6.0,9.0,71,0.00,,,0.00,LWC V2.10 B1702,2013-01-05 09:20:00,
2013-01-05 04:25:00,33.0,24.6,29.96,West,265,1.0,6.0,71,0.00,,,0.00,LWC V2.10 B1702,2013-01-05 09:25:00,
2013-01-05 04:30:00,32.9,24.9,29.95,West,272,3.0,8.0,72,0.00,,,0.00,LWC V2.10 B1702,2013-01-05 09:30:00,
2013-01-05 04:35:00,33.0,24.6,29.96,West,273,1.0,10.0,71,0.00,,,0.00,LWC V2.10 B1702,2013-01-05 09:35:00,
2013-01-05 04:40:00,32.9,24.9,29.96,NW,321,5.0,6.0,72,0.00,,,0.00,LWC V2.10 B1702,2013-01-05 09:40:00,
2013-01-05 04:45:00,33.0,25.0,29.96,WNW,287,3.0,6.0,72,0.00,,,0.00,LWC V2.10 B1702,2013-01-05 09:45:00,
2013-01-05 04:50:00,33.0,25.0,29.96,West,263,8.0,10.0,72,0.00,,,0.00,LWC V2.10 B1702,2013-01-05 09:50:00,
2013-01-05 04:55:00,33.1,25.1,29.97,WSW,250,6.0,9.0,72,0.00,,,0.00,LWC V2.10 B1702,2013-01-05 09:55:00,
2013-01-05 05:00:00,33.2,25.2,29.97,West,281,9.0,9.0,72,0.00,,,0.00,LWC V2.10 B1702,2013-01-05 10:00:00,
2013-01-05 05:05:00,33.3,25.3,29.97,West,270,8.0,8.0,72,0.00,,,0.00,LWC V2.10 B1702,2013-01-05 10:05:00,
2013-01-05 05:10:00,33.5,25.5,29.98,West,275,2.0,9.0,72,0.00,,,0.00,LWC V2.10 B1702,2013-01-05 10:10:00,
2013-01-05 05:15:00,33.5,25.5,29.98,WNW,282,3.0,9.0,72,0.00,,,0.00,LWC V2.10 B1702,2013-01-05 10:15:00,
2013-01-05 05:20:00,33.7,25.6,29.98,WNW,294,6.0,8.0,72,0.00,,,0.00,LWC V2.10 B1702,2013-01-05 10:20:00,
2013-01-05 05:25:00,33.9,25.8,29.98,WNW,300,3.0,9.0,72,0.00,,,0.00,LWC V2.10 B1702,2013-01-05 10:25:00,
2013-01-05 05:30:00,34.1,25.7,29.99,NW,304,4.0,7.0,71,0.00,,,0.00,LWC V2.10 B1702,2013-01-05 10:30:00,
2013-01-05 05:35:00,34.2,25.8,29.99,NW,318,2.0,9.0,71,0.00,,,0.00,LWC V2.10 B1702,2013-01-05 10:35:00,
2013-01-05 05:40:00,34.1,25.7,29.99,WNW,292,4.0,9.0,71,0.00,,,0.00,LWC V2.10 B1702,2013-01-05 10:40:00,
2013-01-05 05:45:00,34.3,25.9,29.99,WNW,292,2.0,9.0,71,0.00,,,0.00,LWC V2.10 B1702,2013-01-05 10:45:00,
2013-01-05 05:50:00,34.4,25.6,30.00,West,263,3.0,7.0,70,0.00,,,0.00,LWC V2.10 B1702,2013-01-05 10:50:00,
2013-01-05 05:55:00,34.6,26.2,30.00,WNW,288,1.0,11.0,71,0.00,,,0.00,LWC V2.10 B1702,2013-01-05 10:55:00,
2013-01-05 06:00:00,34.7,26.3,30.00,West,262,7.0,11.0,71,0.00,,,0.00,LWC V2.10 B1702,2013-01-05 11:00:00,
2013-01-05 06:05:00,34.7,26.3,30.00,North,11,7.0,10.0,71,0.00,,,0.00,LWC V2.10 B1702,2013-01-05 11:05:00,
2013-01-05 06:10:00,34.8,26.0,30.00,West,266,5.0,10.0,70,0.00,,,0.00,LWC V2.10 B1702,2013-01-05 11:10:00,
2013-01-05 06:15:00,34.8,26.0,30.00,West,265,6.0,9.0,70,0.00,,,0.00,LWC V2.10 B1702,2013-01-05 11:15:00,
2013-01-05 06:20:00,34.7,26.3,30.01,WNW,302,7.0,10.0,71,0.00,,,0.00,LWC V2.10 B1702,2013-01-05 11:20:00,
2013-01-05 06:25:00,34.8,26.4,30.01,West,273,6.0,9.0,71,0.00,,,0.00,LWC V2.10 B1702,2013-01-05 11:25:00,
2013-01-05 06:30:00,34.8,26.4,30.01,West,276,4.0,9.0,71,0.00,,,0.00,LWC V2.10 B1702,2013-01-05 11:30:00,
2013-01-05 06:35:00,34.8,26.0,30.02,NW,304,3.0,11.0,70,0.00,,,0.00,LWC V2.10 B1702,2013-01-05 11:35:00,
2013-01-05 06:40:00,34.8,26.4,30.02,West,260,10.0,14.0,71,0.00,,,0.00,LWC V2.10 B1702,2013-01-05 11:40:00,
2013-01-05 06:45:00,34.8,26.4,30.03,WSW,252,7.0,10.0,71,0.00,,,0.00,LWC V2.10 B1702,2013-01-05 11:45:00,
2013-01-05 06:50:00,34.8,26.4,30.03,West,270,2.0,9.0,71,0.00,,,0.00,LWC V2.10 B1702,2013-01-05 11:50:00,
2013-01-05 06:55:00,34.9,26.1,30.03,WNW,283,5.0,11.0,70,0.00,,,0.00,LWC V2.10 B1702,2013-01-05 11:55:00,
2013-01-05 07:00:00,35.0,26.6,30.04,WSW,240,5.0,11.0,71,0.00,,,0.00,LWC V2.10 B1702,2013-01-05 12:00:00,
2013-01-05 07:05:00,35.0,26.6,30.04,West,281,4.0,8.0,71,0.00,,,0.00,LWC V2.10 B1702,2013-01-05 12:05:00,
2013-01-05 07:10:00,35.0,26.6,30.04,WSW,248,2.0,9.0,71,0.00,,,0.00,LWC V2.10 B1702,2013-01-05 12:10:00,
2013-01-05 07:15:00,35.0,26.6,30.04,WSW,257,7.0,11.0,71,0.00,,,0.00,LWC V2.10 B1702,2013-01-05 12:15:00,
2013-01-05 07:20:00,35.0,26.6,30.05,NNW,328,3.0,6.0,71,0.00,,,0.00,LWC V2.10 B1702,2013-01-05 12:20:00,
2013-01-05 07:25:00,34.8,26.4,30.05,NW,309,10.0,11.0,71,0.00,,,0.00,LWC V2.10 B1702,2013-01-05 12:25:00,
2013-01-05 07:30:00,34.9,26.5,30.05,West,261,5.0,7.0,71,0.00,,,0.00,LWC V2.10 B1702,2013-01-05 12:30:00,
2013-01-05 07:35:00,34.8,26.4,30.06,West,261,3.0,9.0,71,0.00,,,0.00,LWC V2.10 B1702,2013-01-05 12:35:00,
2013-01-05 07:40:00,35.0,26.6,30.06,WNW,282,2.0,8.0,71,0.00,,,0.00,LWC V2.10 B1702,2013-01-05 12:40:00,
2013-01-05 07:45:00,35.0,26.6,30.06,West,260,3.0,7.0,71,0.00,,,0.00,LWC V2.10 B1702,2013-01-05 12:45:00,
2013-01-05 07:50:00,35.1,26.7,30.07,NW,309,8.0,10.0,71,0.00,,,0.00,LWC V2.10 B1702,2013-01-05 12:50:00,
2013-01-05 07:55:00,35.2,26.4,30.07,West,280,3.0,9.0,70,0.00,,,0.00,LWC V2.10 B1702,2013-01-05 12:55:00,
2013-01-05 08:00:00,35.3,26.2,30.07,NW,308,3.0,8.0,69,0.00,,,0.00,LWC V2.10 B1702,2013-01-05 13:00:00,
2013-01-05 08:05:00,35.5,26.7,30.07,West,269,5.0,8.0,70,0.00,,,0.00,LWC V2.10 B1702,2013-01-05 13:05:00,
2013-01-05 08:10:00,35.6,26.5,30.08,North,5,5.0,7.0,69,0.00,,,0.00,LWC V2.10 B1702,2013-01-05 13:10:00,
2013-01-05 08:15:00,35.6,26.5,30.08,West,280,4.0,10.0,69,0.00,,,0.00,LWC V2.10 B1702,2013-01-05 13:15:00,
2013-01-05 08:20:00,35.7,26.9,30.08,WNW,291,7.0,12.0,70,0.00,,,0.00,LWC V2.10 B1702,2013-01-05 13:20:00,
2013-01-05 08:25:00,35.8,26.6,30.08,West,273,6.0,11.0,69,0.00,,,0.00,LWC V2.10 B1702,2013-01-05 13:25:00,
2013-01-05 08:30:00,35.9,27.1,30.08,West,279,7.0,8.0,70,0.00,,,0.00,LWC V2.10 B1702,2013-01-05 13:30:00,
2013-01-05 08:35:00,36.0,27.2,30.09,WNW,302,4.0,7.0,70,0.00,,,0.00,LWC V2.10 B1702,2013-01-05 13:35:00,
2013-01-05 08:40:00,36.0,27.2,30.09,WSW,258,7.0,8.0,70,0.00,,,0.00,LWC V2.10 B1702,2013-01-05 13:40:00,
2013-01-05 08:45:00,36.2,27.0,30.10,WSW,237,2.0,6.0,69,0.00,,,0.00,LWC V2.10 B1702,2013-01-05 13:45:00,
2013-01-05 08:50:00,36.3,27.1,30.10,West,268,4.0,6.0,69,0.00,,,0.00,LWC V2.10 B1702,2013-01-05 13:50:00,
2013-01-05 08:55:00,36.4,26.9,30.10,West,261,4.0,12.0,68,0.00,,,0.00,LWC V2.10 B1702,2013-01-05 13:55:00,
2013-01-05 09:00:00,36.5,27.3,30.10,WSW,248,11.0,11.0,69,0.00,,,0.00,LWC V2.10 B1702,2013-01-05 14:00:00,
2013-01-05 09:05:00,36.7,27.1,30.11,NW,323,6.0,12.0,68,0.00,,,0.00,LWC V2.10 B1702,2013-01-05 14:05:00,
2013-01-05 09:10:00,36.9,27.3,30.11,West,259,5.0,11.0,68,0.00,,,0.00,LWC V2.10 B1702,2013-01-05 14:10:00,
2013-01-05 09:15:00,37.2,27.3,30.12,NW,311,5.0,6.0,67,0.00,,,0.00,LWC V2.10 B1702,2013-01-05 14:15:00,
2013-01-05 09:20:00,37.5,27.6,30.12,WNW,297,5.0,9.0,67,0.00,,,0.00,LWC V2.10 B1702,2013-01-05 14:20:00,
2013-01-05 09:25:00,37.7,27.4,30.12,NNW,336,8.0,9.0,66,0.00,,,0.00,LWC V2.10 B1702,2013-01-05 14:25:00,
2013-01-05 09:30:00,37.8,27.8,30.12,SW,231,6.0,9.0,67,0.00,,,0.00,LWC V2.10 B1702,2013-01-05 14:30:00,
2013-01-05 09:35:00,37.9,27.6,30.12,WNW,292,4.0,8.0,66,0.00,,,0.00,LWC V2.10 B1702,2013-01-05 14:35:00,
2013-01-05 09:40:00,38.1,27.8,30.13,WNW,303,9.0,9.0,66,0.00,,,0.00,LWC V2.10 B1702,2013-01-05 14:40:00,
2013-01-05 09:45:00,38.3,27.6,30.13,WNW,302,3.0,9.0,65,0.00,,,0.00,LWC V2.10 B1702,2013-01-05 14:45:00,
2013-01-05 09:50:00,38.5,28.1,30.14,WNW,296,5.0,5.0,66,0.00,,,0.00,LWC V2.10 B1702,2013-01-05 14:50:00,
2013-01-05 09:55:00,38.7,28.0,30.14,WNW,286,7.0,9.0,65,0.00,,,0.00,LWC V2.10 B1702,2013-01-05 14:55:00,
2013-01-05 10:00:00,38.8,28.1,30.14,WNW,284,4.0,7.0,65,0.00,,,0.00,LWC V2.10 B1702,2013-01-05 15:00:00,
2013-01-05 10:05:00,38.9,28.2,30.13,WNW,286,5.0,7.0,65,0.00,,,0.00,LWC V2.10 B1702,2013-01-05 15:05:00,
2013-01-05 10:10:00,39.0,28.2,30.13,WNW,289,2.0,5.0,65,0.00,,,0.00,LWC V2.10 B1702,2013-01-05 15:10:00,
2013-01-05 10:15:00,39.2,28.1,30.14,NNW,338,4.0,6.0,64,0.00,,,0.00,LWC V2.10 B1702,2013-01-05 15:15:00,
2013-01-05 10:20:00,39.4,28.2,30.14,WNW,298,3.0,7.0,64,0.00,,,0.00,LWC V2.10 B1702,2013-01-05 15:20:00,
2013-01-05 10:25:00,39.5,28.3,30.13,WNW,285,5.0,6.0,64,0.00,,,0.00,LWC V2.10 B1702,2013-01-05 15:25:00,
2013-01-05 10:30:00,39.7,28.9,30.13,WSW,254,6.0,10.0,65,0.00,,,0.00,LWC V2.10 B1702,2013-01-05 15:30:00,
2013-01-05 10:35:00,39.7,28.5,30.12,WNW,293,8.0,10.0,64,0.00,,,0.00,LWC V2.10 B1702,2013-01-05 15:35:00,
2013-01-05 10:40:00,39.9,28.7,30.13,WNW,293,4.0,7.0,64,0.00,,,0.01,LWC V2.10 B1702,2013-01-05 15:40:00,
2013-01-05 10:45:00,40.0,29.2,30.12,West,273,4.0,6.0,65,0.00,,,0.01,LWC V2.10 B1702,2013-01-05 15:45:00,
2013-01-05 10:50:00,40.2,29.0,30.13,WNW,302,4.0,7.0,64,0.00,,,0.01,LWC V2.10 B1702,2013-01-05 15:50:00,
2013-01-05 10:55:00,40.5,29.3,30.12,WNW,297,3.0,8.0,64,0.00,,,0.01,LWC V2.10 B1702,2013-01-05 15:55:00,
2013-01-05 11:00:00,40.6,28.6,30.12,WNW,293,2.0,7.0,62,0.00,,,0.02,LWC V2.10 B1702,2013-01-05 16:00:00,
2013-01-05 11:05:00,40.7,28.7,30.13,NW,319,3.0,7.0,62,0.00,,,0.02,LWC V2.10 B1702,2013-01-05 16:05:00,
2013-01-05 11:10:00,40.8,29.2,30.13,NNW,330,2.0,4.0,63,0.00,,,0.02,LWC V2.10 B1702,2013-01-05 16:10:00,
2013-01-05 11:15:00,41.0,29.0,30.13,West,272,6.0,6.0,62,0.00,,,0.02,LWC V2.10 B1702,2013-01-05 16:15:00,
2013-01-05 11:20:00,41.3,28.9,30.13,NW,325,7.0,8.0,61,0.00,,,0.03,LWC V2.10 B1702,2013-01-05 16:20:00,
2013-01-05 11:26:00,41.3,28.5,30.13,WNW,284,1.0,8.0,60,0.00,,,0.03,LWC V2.10 B1702,2013-01-05 16:26:00,
2013-01-05 11:31:00,41.4,28.6,30.12,WNW,284,3.0,3.0,60,0.00,,,0.03,LWC V2.10 B1702,2013-01-05 16:31:00,
2013-01-05 11:36:00,41.6,27.9,30.12,NNW,335,3.0,7.0,58,0.05,,,0.04,LWC V2.10 B1702,2013-01-05 16:36:00,
2013-01-05 11:41:00,41.6,27.9,30.12,NW,325,0.0,6.0,58,0.05,,,0.04,LWC V2.10 B1702,2013-01-05 16:41:00,
2013-01-05 11:46:00,41.7,27.6,30.12,NNW,341,4.0,7.0,57,0.05,,,0.04,LWC V2.10 B1702,2013-01-05 16:46:00,
2013-01-05 11:51:00,41.8,26.8,30.13,NNW,331,3.0,7.0,55,0.00,,,0.04,LWC V2.10 B1702,2013-01-05 16:51:00,
2013-01-05 11:56:00,42.0,27.9,30.13,WNW,288,2.0,4.0,57,0.00,,,0.05,LWC V2.10 B1702,2013-01-05 16:56:00,
2013-01-05 12:01:00,42.3,27.7,30.12,NW,325,0.0,2.0,56,0.00,,,0.05,LWC V2.10 B1702,2013-01-05 17:01:00,
2013-01-05 12:06:00,42.6,28.0,30.12,WNW,287,4.0,7.0,56,0.06,,,0.06,LWC V2.10 B1702,2013-01-05 17:06:00,
2013-01-05 12:11:00,42.6,27.6,30.12,NNW,338,5.0,6.0,55,0.06,,,0.06,LWC V2.10 B1702,2013-01-05 17:11:00,
2013-01-05 12:16:00,42.6,28.0,30.12,NNW,328,4.0,6.0,56,0.05,,,0.06,LWC V2.10 B1702,2013-01-05 17:16:00,
2013-01-05 12:21:00,42.7,27.7,30.12,NNE,28,4.0,8.0,55,0.04,,,0.06,LWC V2.10 B1702,2013-01-05 17:21:00,
2013-01-05 12:26:00,42.7,28.1,30.13,NW,318,3.0,8.0,56,0.04,,,0.07,LWC V2.10 B1702,2013-01-05 17:26:00,
2013-01-05 12:31:00,42.8,27.3,30.13,NW,323,1.0,7.0,54,0.04,,,0.07,LWC V2.10 B1702,2013-01-05 17:31:00,
2013-01-05 12:36:00,42.9,27.9,30.13,North,355,0.0,3.0,55,0.06,,,0.08,LWC V2.10 B1702,2013-01-05 17:36:00,
2013-01-05 12:41:00,43.2,27.7,30.12,NW,315,4.0,6.0,54,0.06,,,0.08,LWC V2.10 B1702,2013-01-05 17:41:00,
2013-01-05 12:46:00,43.3,27.3,30.13,NW,311,5.0,5.0,53,0.04,,,0.08,LWC V2.10 B1702,2013-01-05 17:46:00,
2013-01-05 12:51:00,43.4,27.0,30.13,NNW,344,5.0,6.0,52,0.04,,,0.09,LWC V2.10 B1702,2013-01-05 17:51:00,
2013-01-05 12:56:00,43.3,27.8,30.13,NNW,331,4.0,7.0,54,0.04,,,0.09,LWC V2.10 B1702,2013-01-05 17:56:00,
2013-01-05 13:01:00,43.4,28.8,30.13,West,270,4.0,4.0,56,0.05,,,0.10,LWC V2.10 B1702,2013-01-05 18:01:00,
2013-01-05 13:06:00,43.4,28.8,30.13,West,270,4.0,4.0,56,0.05,,,0.10,LWC V2.10 B1702,2013-01-05 18:06:00,
2013-01-05 13:11:00,43.5,28.9,30.13,NNW,329,0.0,2.0,56,0.05,,,0.10,LWC V2.10 B1702,2013-01-05 18:11:00,
2013-01-05 13:16:00,43.7,29.9,30.13,West,280,0.0,0.0,58,0.04,,,0.10,LWC V2.10 B1702,2013-01-05 18:16:00,
2013-01-05 13:21:00,43.9,28.3,30.13,NW,311,4.0,4.0,54,0.00,,,0.10,LWC V2.10 B1702,2013-01-05 18:21:00,
2013-01-05 13:26:00,44.1,28.1,30.13,NW,317,8.0,8.0,53,0.00,,,0.11,LWC V2.10 B1702,2013-01-05 18:26:00,
2013-01-05 13:31:00,44.0,27.5,30.13,North,5,3.0,6.0,52,0.00,,,0.11,LWC V2.10 B1702,2013-01-05 18:31:00,
2013-01-05 13:36:00,44.0,27.0,30.13,NNE,17,3.0,5.0,51,0.00,,,0.11,LWC V2.10 B1702,2013-01-05 18:36:00,
2013-01-05 13:41:00,44.1,27.1,30.13,NNE,12,4.0,6.0,51,0.00,,,0.12,LWC V2.10 B1702,2013-01-05 18:41:00,
2013-01-05 13:46:00,44.2,26.8,30.13,NNW,337,3.0,4.0,50,0.00,,,0.12,LWC V2.10 B1702,2013-01-05 18:46:00,
2013-01-05 13:51:00,44.4,26.5,30.13,NW,321,3.0,6.0,49,0.00,,,0.12,LWC V2.10 B1702,2013-01-05 18:51:00,
2013-01-05 13:56:00,44.4,26.9,30.12,NNW,331,4.0,5.0,50,0.00,,,0.12,LWC V2.10 B1702,2013-01-05 18:56:00,
2013-01-05 14:01:00,44.3,26.8,30.13,NW,323,6.0,6.0,50,0.00,,,0.13,LWC V2.10 B1702,2013-01-05 19:01:00,
2013-01-05 14:06:00,44.1,26.2,30.13,NNW,345,6.0,9.0,49,0.00,,,0.13,LWC V2.10 B1702,2013-01-05 19:06:00,
2013-01-05 14:11:00,44.1,27.1,30.14,West,273,1.0,5.0,51,0.00,,,0.13,LWC V2.10 B1702,2013-01-05 19:11:00,
2013-01-05 14:16:00,44.1,27.6,30.14,NNE,27,2.0,2.0,52,0.04,,,0.14,LWC V2.10 B1702,2013-01-05 19:16:00,
2013-01-05 14:21:00,44.0,27.5,30.14,ESE,109,0.0,2.0,52,0.04,,,0.14,LWC V2.10 B1702,2013-01-05 19:21:00,
2013-01-05 14:26:00,43.7,27.2,30.14,North,5,0.0,1.0,52,0.04,,,0.14,LWC V2.10 B1702,2013-01-05 19:26:00,
2013-01-05 14:31:00,43.8,27.3,30.14,NNW,346,0.0,2.0,52,0.00,,,0.14,LWC V2.10 B1702,2013-01-05 19:31:00,
2013-01-05 14:36:00,43.9,27.4,30.14,North,355,2.0,5.0,52,0.00,,,0.14,LWC V2.10 B1702,2013-01-05 19:36:00,
2013-01-05 14:41:00,44.0,27.0,30.14,NNW,340,1.0,1.0,51,0.00,,,0.14,LWC V2.10 B1702,2013-01-05 19:41:00,
2013-01-05 14:46:00,43.8,26.4,30.14,NNW,332,0.0,0.0,50,0.00,,,0.15,LWC V2.10 B1702,2013-01-05 19:46:00,
2013-01-05 14:51:00,43.4,27.0,30.15,NW,324,0.0,4.0,52,0.00,,,0.15,LWC V2.10 B1702,2013-01-05 19:51:00,
2013-01-05 14:56:00,43.1,27.1,30.15,NW,326,4.0,4.0,53,0.00,,,0.15,LWC V2.10 B1702,2013-01-05 19:56:00,
2013-01-05 15:01:00,42.6,27.1,30.15,NW,318,3.0,7.0,54,0.00,,,0.15,LWC V2.10 B1702,2013-01-05 20:01:00,
2013-01-05 15:06:00,42.3,27.3,30.15,NW,306,1.0,4.0,55,0.00,,,0.15,LWC V2.10 B1702,2013-01-05 20:06:00,
2013-01-05 15:11:00,42.1,26.7,30.16,NW,304,0.0,3.0,54,0.00,,,0.15,LWC V2.10 B1702,2013-01-05 20:11:00,
2013-01-05 15:16:00,42.0,27.0,30.17,NW,304,0.0,0.0,55,0.00,,,0.15,LWC V2.10 B1702,2013-01-05 20:16:00,
2013-01-05 15:21:00,41.9,26.9,30.17,NW,307,0.0,1.0,55,0.00,,,0.15,LWC V2.10 B1702,2013-01-05 20:21:00,
2013-01-05 15:26:00,41.8,26.4,30.16,NW,319,2.0,3.0,54,0.00,,,0.15,LWC V2.10 B1702,2013-01-05 20:26:00,
2013-01-05 15:31:00,41.5,27.0,30.17,NW,325,1.0,1.0,56,0.00,,,0.15,LWC V2.10 B1702,2013-01-05 20:31:00,
2013-01-05 15:36:00,41.3,26.8,30.17,NW,325,0.0,1.0,56,0.00,,,0.15,LWC V2.10 B1702,2013-01-05 20:36:00,
2013-01-05 15:41:00,41.0,27.4,30.17,NW,325,0.0,0.0,58,0.00,,,0.15,LWC V2.10 B1702,2013-01-05 20:41:00,
2013-01-05 15:46:00,40.9,27.3,30.17,NW,313,0.0,1.0,58,0.00,,,0.15,LWC V2.10 B1702,2013-01-05 20:46:00,
2013-01-05 15:51:00,40.6,27.0,30.17,NW,324,0.0,2.0,58,0.00,,,0.15,LWC V2.10 B1702,2013-01-05 20:51:00,
2013-01-05 15:56:00,40.6,27.8,30.17,NW,315,1.0,3.0,60,0.00,,,0.15,LWC V2.10 B1702,2013-01-05 20:56:00,
2013-01-05 16:01:00,40.4,26.8,30.18,NNW,330,2.0,3.0,58,0.00,,,0.16,LWC V2.10 B1702,2013-01-05 21:01:00,
2013-01-05 16:06:00,40.3,26.7,30.17,WNW,301,1.0,2.0,58,0.00,,,0.16,LWC V2.10 B1702,2013-01-05 21:06:00,
2013-01-05 16:11:00,40.4,32.1,30.18,WNW,303,0.0,1.0,72,0.00,,,0.16,LWC V2.10 B1702,2013-01-05 21:11:00,
2013-01-05 16:16:00,40.7,31.7,30.19,WNW,303,0.0,0.0,70,0.00,,,0.16,LWC V2.10 B1702,2013-01-05 21:16:00,
2013-01-05 16:21:00,40.8,30.7,30.19,WNW,303,0.0,1.0,67,0.00,,,0.16,LWC V2.10 B1702,2013-01-05 21:21:00,
2013-01-05 16:26:00,40.5,28.9,30.18,NNW,343,2.0,3.0,63,0.00,,,0.16,LWC V2.10 B1702,2013-01-05 21:26:00,
2013-01-05 16:31:00,40.6,31.6,30.18,NNW,337,0.0,0.0,70,0.00,,,0.16,LWC V2.10 B1702,2013-01-05 21:31:00,
2013-01-05 16:36:00,41.2,31.5,30.19,NNW,337,0.0,0.0,68,0.00,,,0.16,LWC V2.10 B1702,2013-01-05 21:36:00,
2013-01-05 16:41:00,41.5,30.2,30.19,NNW,337,0.0,0.0,64,0.00,,,0.16,LWC V2.10 B1702,2013-01-05 21:41:00,
2013-01-05 16:46:00,41.7,30.0,30.19,NNW,337,0.0,0.0,63,0.00,,,0.16,LWC V2.10 B1702,2013-01-05 21:46:00,
2013-01-05 16:51:00,41.3,29.7,30.19,NNW,337,0.0,0.0,63,0.00,,,0.16,LWC V2.10 B1702,2013-01-05 21:51:00,
2013-01-05 16:56:00,41.0,28.2,30.19,NNW,337,0.0,0.0,60,0.00,,,0.16,LWC V2.10 B1702,2013-01-05 21:56:00,
2013-01-05 17:01:00,40.5,28.1,30.19,NNW,337,0.0,0.0,61,0.00,,,0.16,LWC V2.10 B1702,2013-01-05 22:01:00,
2013-01-05 17:06:00,40.1,31.5,30.20,NNW,337,0.0,0.0,71,0.00,,,0.16,LWC V2.10 B1702,2013-01-05 22:06:00,
2013-01-05 17:11:00,39.5,30.5,30.19,NNW,337,0.0,0.0,70,0.00,,,0.16,LWC V2.10 B1702,2013-01-05 22:11:00,
2013-01-05 17:16:00,39.3,31.0,30.20,NNW,337,0.0,0.0,72,0.00,,,0.16,LWC V2.10 B1702,2013-01-05 22:16:00,
2013-01-05 17:21:00,38.7,27.6,30.20,NNW,337,0.0,0.0,64,0.00,,,0.16,LWC V2.10 B1702,2013-01-05 22:21:00,
2013-01-05 17:26:00,38.0,26.9,30.20,NNW,337,0.0,0.0,64,0.00,,,0.16,LWC V2.10 B1702,2013-01-05 22:26:00,
2013-01-05 17:31:00,37.1,26.1,30.20,NNW,337,0.0,0.0,64,0.00,,,0.16,LWC V2.10 B1702,2013-01-05 22:31:00,
2013-01-05 17:36:00,36.2,25.6,30.20,NNW,337,0.0,0.0,65,0.00,,,0.16,LWC V2.10 B1702,2013-01-05 22:36:00,
2013-01-05 17:41:00,35.5,25.6,30.21,NNW,337,0.0,0.0,67,0.00,,,0.16,LWC V2.10 B1702,2013-01-05 22:41:00,
2013-01-05 17:46:00,34.8,25.3,30.21,NNW,337,0.0,0.0,68,0.00,,,0.16,LWC V2.10 B1702,2013-01-05 22:46:00,
2013-01-05 17:51:00,34.2,25.1,30.21,NNW,337,0.0,0.0,69,0.00,,,0.16,LWC V2.10 B1702,2013-01-05 22:51:00,
2013-01-05 17:56:00,33.7,24.6,30.21,NNW,337,0.0,0.0,69,0.00,,,0.16,LWC V2.10 B1702,2013-01-05 22:56:00,
2013-01-05 18:01:00,33.1,26.1,30.21,NE,42,0.0,0.0,75,0.00,,,0.16,LWC V2.10 B1702,2013-01-05 23:01:00,
2013-01-05 18:06:00,32.6,24.9,30.21,NE,42,0.0,0.0,73,0.00,,,0.16,LWC V2.10 B1702,2013-01-05 23:06:00,
2013-01-05 18:11:00,32.4,25.4,30.21,NE,42,0.0,0.0,75,0.00,,,0.16,LWC V2.10 B1702,2013-01-05 23:11:00,
2013-01-05 18:16:00,34.3,31.7,30.22,NE,42,0.0,0.0,90,0.00,,,0.16,LWC V2.10 B1702,2013-01-05 23:16:00,
2013-01-05 18:21:00,34.4,30.1,30.21,NE,42,0.0,0.0,84,0.00,,,0.16,LWC V2.10 B1702,2013-01-05 23:21:00,
2013-01-05 18:26:00,35.2,32.3,30.22,NE,42,0.0,0.0,89,0.00,,,0.16,LWC V2.10 B1702,2013-01-05 23:26:00,
2013-01-05 18:31:00,34.0,28.2,30.23,WSW,240,0.0,1.0,79,0.00,,,0.16,LWC V2.10 B1702,2013-01-05 23:31:00,
2013-01-05 18:36:00,33.6,29.6,30.23,WSW,240,0.0,0.0,85,0.00,,,0.16,LWC V2.10 B1702,2013-01-05 23:36:00,
2013-01-05 18:41:00,33.9,29.0,30.23,WSW,240,0.0,0.0,82,0.00,,,0.16,LWC V2.10 B1702,2013-01-05 23:41:00,
2013-01-05 18:46:00,33.4,26.3,30.24,WSW,240,0.0,0.0,75,0.00,,,0.16,LWC V2.10 B1702,2013-01-05 23:46:00,
2013-01-05 18:51:00,32.8,25.8,30.23,WSW,240,0.0,0.0,75,0.00,,,0.16,LWC V2.10 B1702,2013-01-05 23:51:00,
2013-01-05 18:56:00,32.4,25.4,30.23,WSW,240,0.0,0.0,75,0.00,,,0.16,LWC V2.10 B1702,2013-01-05 23:56:00,
2013-01-05 19:01:00,31.9,24.9,30.24,WSW,240,0.0,0.0,75,0.00,,,0.16,LWC V2.10 B1702,2013-01-06 00:01:00,
2013-01-05 19:06:00,31.3,24.6,30.24,WSW,240,0.0,0.0,76,0.00,,,0.16,LWC V2.10 B1702,2013-01-06 00:06:00,
2013-01-05 19:11:00,30.9,24.6,30.24,WSW,240,0.0,0.0,77,0.00,,,0.16,LWC V2.10 B1702,2013-01-06 00:11:00,
2013-01-05 19:16:00,30.6,24.6,30.25,WSW,240,0.0,0.0,78,0.00,,,0.16,LWC V2.10 B1702,2013-01-06 00:16:00,
2013-01-05 19:21:00,30.2,24.2,30.25,WSW,240,0.0,0.0,78,0.00,,,0.16,LWC V2.10 B1702,2013-01-06 00:21:00,
2013-01-05 19:26:00,29.9,23.9,30.25,WSW,240,0.0,0.0,78,0.00,,,0.16,LWC V2.10 B1702,2013-01-06 00:26:00,
2013-01-05 19:31:00,29.8,24.1,30.25,WSW,240,0.0,0.0,79,0.00,,,0.16,LWC V2.10 B1702,2013-01-06 00:31:00,
2013-01-05 19:36:00,29.6,23.9,30.25,WSW,240,0.0,0.0,79,0.00,,,0.16,LWC V2.10 B1702,2013-01-06 00:36:00,
2013-01-05 19:41:00,29.3,23.6,30.25,WSW,240,0.0,0.0,79,0.00,,,0.16,LWC V2.10 B1702,2013-01-06 00:41:00,
2013-01-05 19:46:00,29.1,24.0,30.25,WSW,240,0.0,0.0,81,0.00,,,0.16,LWC V2.10 B1702,2013-01-06 00:46:00,
2013-01-05 19:51:00,28.9,23.8,30.25,WSW,240,0.0,0.0,81,0.00,,,0.16,LWC V2.10 B1702,2013-01-06 00:51:00,
2013-01-05 19:56:00,28.8,23.7,30.24,WSW,240,0.0,0.0,81,0.00,,,0.16,LWC V2.10 B1702,2013-01-06 00:56:00,
2013-01-05 20:01:00,28.8,23.7,30.25,WSW,240,0.0,0.0,81,0.00,,,0.16,LWC V2.10 B1702,2013-01-06 01:01:00,
2013-01-05 20:06:00,28.7,23.6,30.25,WSW,240,0.0,0.0,81,0.00,,,0.16,LWC V2.10 B1702,2013-01-06 01:06:00,
2013-01-05 20:11:00,28.6,23.5,30.25,WSW,240,0.0,0.0,81,0.00,,,0.16,LWC V2.10 B1702,2013-01-06 01:11:00,
2013-01-05 20:16:00,28.5,23.4,30.24,WSW,240,0.0,0.0,81,0.00,,,0.16,LWC V2.10 B1702,2013-01-06 01:16:00,
2013-01-05 20:21:00,28.5,23.7,30.24,WSW,240,0.0,0.0,82,0.00,,,0.16,LWC V2.10 B1702,2013-01-06 01:21:00,
2013-01-05 20:26:00,28.4,23.3,30.24,WSW,240,0.0,0.0,81,0.00,,,0.16,LWC V2.10 B1702,2013-01-06 01:26:00,
2013-01-05 20:31:00,28.4,23.6,30.23,WSW,239,0.0,0.0,82,0.00,,,0.16,LWC V2.10 B1702,2013-01-06 01:31:00,
2013-01-05 20:36:00,28.5,23.7,30.24,WSW,240,0.0,0.0,82,0.00,,,0.16,LWC V2.10 B1702,2013-01-06 01:36:00,
2013-01-05 20:41:00,28.5,23.7,30.24,WSW,240,0.0,0.0,82,0.00,,,0.16,LWC V2.10 B1702,2013-01-06 01:41:00,
2013-01-05 20:46:00,28.3,23.5,30.22,ENE,58,0.0,1.0,82,0.00,,,0.16,LWC V2.10 B1702,2013-01-06 01:46:00,
2013-01-05 20:51:00,28.2,23.4,30.22,ENE,58,0.0,0.0,82,0.00,,,0.16,LWC V2.10 B1702,2013-01-06 01:51:00,
2013-01-05 20:56:00,28.1,23.3,30.22,ENE,58,0.0,0.0,82,0.00,,,0.16,LWC V2.10 B1702,2013-01-06 01:56:00,
2013-01-05 21:01:00,28.0,23.2,30.23,ENE,58,0.0,0.0,82,0.00,,,0.16,LWC V2.10 B1702,2013-01-06 02:01:00,
2013-01-05 21:06:00,28.0,23.2,30.24,ENE,58,0.0,0.0,82,0.00,,,0.16,LWC V2.10 B1702,2013-01-06 02:06:00,
2013-01-05 21:11:00,27.9,23.1,30.24,ENE,58,0.0,0.0,82,0.00,,,0.16,LWC V2.10 B1702,2013-01-06 02:11:00,
2013-01-05 21:16:00,27.8,23.3,30.24,ENE,58,0.0,0.0,83,0.00,,,0.16,LWC V2.10 B1702,2013-01-06 02:16:00,
2013-01-05 21:21:00,27.8,23.3,30.23,NNE,30,0.0,0.0,83,0.00,,,0.16,LWC V2.10 B1702,2013-01-06 02:21:00,
2013-01-05 21:26:00,27.7,23.2,30.24,ENE,66,0.0,1.0,83,0.00,,,0.16,LWC V2.10 B1702,2013-01-06 02:26:00,
2013-01-05 21:31:00,27.6,23.1,30.22,ENE,66,0.0,0.0,83,0.00,,,0.16,LWC V2.10 B1702,2013-01-06 02:31:00,
2013-01-05 21:36:00,27.5,23.0,30.22,ENE,66,0.0,0.0,83,0.00,,,0.16,LWC V2.10 B1702,2013-01-06 02:36:00,
2013-01-05 21:41:00,27.4,22.9,30.22,ENE,66,0.0,0.0,83,0.00,,,0.16,LWC V2.10 B1702,2013-01-06 02:41:00,
2013-01-05 21:46:00,27.4,22.9,30.23,ENE,66,0.0,0.0,83,0.00,,,0.16,LWC V2.10 B1702,2013-01-06 02:46:00,
2013-01-05 21:51:00,27.4,23.2,30.24,ENE,66,0.0,0.0,84,0.00,,,0.16,LWC V2.10 B1702,2013-01-06 02:51:00,
2013-01-05 21:56:00,27.3,22.8,30.24,ENE,66,0.0,0.0,83,0.00,,,0.16,LWC V2.10 B1702,2013-01-06 02:56:00,
2013-01-05 22:01:00,27.1,22.6,30.23,ENE,66,0.0,0.0,83,0.00,,,0.16,LWC V2.10 B1702,2013-01-06 03:01:00,
2013-01-05 22:06:00,27.1,22.9,30.24,ENE,66,0.0,0.0,84,0.00,,,0.16,LWC V2.10 B1702,2013-01-06 03:06:00,
2013-01-05 22:11:00,27.0,22.8,30.23,ENE,66,0.0,0.0,84,0.00,,,0.16,LWC V2.10 B1702,2013-01-06 03:11:00,
2013-01-05 22:16:00,26.9,22.7,30.24,ENE,66,0.0,0.0,84,0.00,,,0.16,LWC V2.10 B1702,2013-01-06 03:16:00,
2013-01-05 22:21:00,26.8,22.6,30.24,ENE,66,0.0,0.0,84,0.00,,,0.16,LWC V2.10 B1702,2013-01-06 03:21:00,
2013-01-05 22:26:00,26.7,22.5,30.24,ENE,66,0.0,0.0,84,0.00,,,0.16,LWC V2.10 B1702,2013-01-06 03:26:00,
2013-01-05 22:31:00,26.7,22.5,30.24,ENE,66,0.0,0.0,84,0.00,,,0.16,LWC V2.10 B1702,2013-01-06 03:31:00,
2013-01-05 22:36:00,26.6,22.4,30.25,ENE,66,0.0,0.0,84,0.00,,,0.16,LWC V2.10 B1702,2013-01-06 03:36:00,
2013-01-05 22:41:00,26.5,22.3,30.24,ENE,66,0.0,0.0,84,0.00,,,0.16,LWC V2.10 B1702,2013-01-06 03:41:00,
2013-01-05 22:46:00,26.4,22.2,30.23,ENE,66,0.0,0.0,84,0.00,,,0.16,LWC V2.10 B1702,2013-01-06 03:46:00,
2013-01-05 22:51:00,26.4,22.2,30.23,ENE,66,0.0,1.0,84,0.00,,,0.16,LWC V2.10 B1702,2013-01-06 03:51:00,
2013-01-05 22:56:00,26.4,22.2,30.23,ENE,66,0.0,0.0,84,0.00,,,0.16,LWC V2.10 B1702,2013-01-06 03:56:00,
2013-01-05 23:01:00,26.5,22.3,30.22,ENE,66,0.0,0.0,84,0.00,,,0.16,LWC V2.10 B1702,2013-01-06 04:01:00,
2013-01-05 23:06:00,26.5,22.3,30.22,ENE,66,0.0,0.0,84,0.00,,,0.16,LWC V2.10 B1702,2013-01-06 04:06:00,
2013-01-05 23:11:00,26.4,22.2,30.22,ENE,66,0.0,0.0,84,0.00,,,0.16,LWC V2.10 B1702,2013-01-06 04:11:00,
2013-01-05 23:16:00,26.3,22.1,30.22,ENE,66,0.0,0.0,84,0.00,,,0.16,LWC V2.10 B1702,2013-01-06 04:16:00,
2013-01-05 23:21:00,26.2,22.0,30.22,ENE,66,0.0,0.0,84,0.00,,,0.16,LWC V2.10 B1702,2013-01-06 04:21:00,
2013-01-05 23:26:00,26.2,22.0,30.22,ENE,66,0.0,0.0,84,0.00,,,0.16,LWC V2.10 B1702,2013-01-06 04:26:00,
2013-01-05 23:31:00,26.1,21.9,30.22,ENE,66,0.0,0.0,84,0.00,,,0.16,LWC V2.10 B1702,2013-01-06 04:31:00,
2013-01-05 23:36:00,26.0,21.8,30.22,ENE,66,0.0,0.0,84,0.00,,,0.16,LWC V2.10 B1702,2013-01-06 04:36:00,
2013-01-05 23:41:00,26.0,21.8,30.21,ENE,66,0.0,0.0,84,0.00,,,0.16,LWC V2.10 B1702,2013-01-06 04:41:00,
2013-01-05 23:46:00,26.1,21.9,30.20,ENE,66,0.0,0.0,84,0.00,,,0.16,LWC V2.10 B1702,2013-01-06 04:46:00,
2013-01-05 23:51:00,26.1,22.2,30.20,ENE,66,0.0,0.0,85,0.00,,,0.16,LWC V2.10 B1702,2013-01-06 04:51:00,
2013-01-05 23:56:00,26.1,21.9,30.20,ENE,66,0.0,0.0,84,0.00,,,0.16,LWC V2.10 B1702,2013-01-06 04:56:00,